• In Spain
  • List of Countries
  • For 7 days
  • Water Temperature
  • Satellite Maps
  • Weather Map
  • Weather Widgets
  • user-avatar
    Login

    Hourly Weather Sao Mamede de Infesta

    Today, 25 November, Saturday

    Time Temperature Precipitation Wind Pressure Humidity
    00:00 +16°C° 0.3 mm 3 mps 756 mmHg 95%
    01:00 +16°C° 0.3 mm 3 mps 756 mmHg 95%
    02:00 +16°C° 0.3 mm 3 mps 756 mmHg 94%
    03:00 +14°C° 0.1 mm 3 mps 756 mmHg 94%
    04:00 +14°C° 0.1 mm 3 mps 757 mmHg 93%
    05:00 +13°C° 0.1 mm 3 mps 757 mmHg 93%
    06:00 +14°C° 0 mm 3 mps 757 mmHg 90%
    07:00 +14°C° 0 mm 3 mps 758 mmHg 88%
    08:00 +14°C° 0 mm 3 mps 758 mmHg 86%
    09:00 +16°C° 0 mm 3 mps 758 mmHg 80%
    10:00 +17°C° 0 mm 3 mps 758 mmHg 74%
    11:00 +18°C° 0 mm 3 mps 759 mmHg 68%
    12:00 +19°C° 0 mm 4 mps 758 mmHg 67%
    13:00 +19°C° 0 mm 4 mps 758 mmHg 65%
    14:00 +19°C° 0 mm 4 mps 758 mmHg 64%
    15:00 +18°C° 0 mm 4 mps 758 mmHg 67%
    16:00 +17°C° 0 mm 4 mps 758 mmHg 70%
    17:00 +14°C° 0 mm 4 mps 759 mmHg 74%
    18:00 +14°C° 0 mm 4 mps 759 mmHg 74%
    19:00 +13°C° 0 mm 4 mps 760 mmHg 73%
    20:00 +13°C° 0 mm 3 mps 760 mmHg 73%
    21:00 +12°C° 0 mm 4 mps 760 mmHg 72%
    22:00 +12°C° 0 mm 4 mps 761 mmHg 71%
    23:00 +12°C° 0 mm 4 mps 761 mmHg 70%

    Tomorrow, 26 November, Sunday

    Time Temperature Precipitation Wind Pressure Humidity
    00:00 +11°C° 0 mm 4 mps 761 mmHg 69%
    01:00 +11°C° 0 mm 4 mps 762 mmHg 68%
    02:00 +10°C° 0 mm 4 mps 762 mmHg 67%
    03:00 +10°C° 0 mm 4 mps 762 mmHg 66%
    04:00 +10°C° 0 mm 4 mps 762 mmHg 66%
    05:00 +8°C° 0 mm 4 mps 762 mmHg 66%
    06:00 +8°C° 0 mm 4 mps 763 mmHg 63%
    07:00 +10°C° 0 mm 4 mps 763 mmHg 61%
    08:00 +9°C° 0 mm 5 mps 763 mmHg 59%
    09:00 +11°C° 0 mm 4 mps 763 mmHg 54%
    10:00 +13°C° 0 mm 4 mps 764 mmHg 49%
    11:00 +14°C° 0 mm 3 mps 764 mmHg 45%
    12:00 +16°C° 0 mm 3 mps 763 mmHg 44%
    13:00 +16°C° 0 mm 3 mps 763 mmHg 44%
    14:00 +16°C° 0 mm 3 mps 762 mmHg 43%
    15:00 +14°C° 0 mm 3 mps 763 mmHg 48%
    16:00 +12°C° 0 mm 3 mps 763 mmHg 52%
    17:00 +11°C° 0 mm 3 mps 763 mmHg 56%
    18:00 +10°C° 0 mm 3 mps 763 mmHg 57%
    19:00 +10°C° 0 mm 3 mps 763 mmHg 57%
    20:00 +9°C° 0 mm 3 mps 764 mmHg 58%
    21:00 +9°C° 0 mm 3 mps 763 mmHg 58%
    22:00 +9°C° 0 mm 3 mps 763 mmHg 58%
    23:00 +9°C° 0 mm 3 mps 763 mmHg 58%

    Day after tomorrow, 27 November, Monday

    Time Temperature Precipitation Wind Pressure Humidity
    00:00 +9°C° 0 mm 3 mps 763 mmHg 57%
    01:00 +9°C° 0 mm 3 mps 763 mmHg 57%
    02:00 +9°C° 0 mm 3 mps 763 mmHg 57%
    03:00 +9°C° 0 mm 3 mps 763 mmHg 58%
    04:00 +8°C° 0 mm 3 mps 763 mmHg 59%
    05:00 +8°C° 0 mm 3 mps 763 mmHg 61%
    06:00 +8°C° 0 mm 3 mps 763 mmHg 59%
    07:00 +9°C° 0 mm 3 mps 763 mmHg 58%
    08:00 +9°C° 0 mm 3 mps 763 mmHg 57%
    09:00 +12°C° 0 mm 2 mps 762 mmHg 52%
    10:00 +14°C° 0 mm 2 mps 762 mmHg 48%
    11:00 +16°C° 0 mm 2 mps 762 mmHg 43%
    12:00 +16°C° 0 mm 1 mps 761 mmHg 43%
    13:00 +18°C° 0 mm 1 mps 761 mmHg 42%
    14:00 +18°C° 0 mm 1 mps 760 mmHg 41%
    15:00 +16°C° 0 mm 1 mps 760 mmHg 46%
    16:00 +15°C° 0 mm 1 mps 760 mmHg 50%
    17:00 +14°C° 0 mm 1 mps 760 mmHg 54%
    18:00 +13°C° 0 mm 1 mps 760 mmHg 56%
    19:00 +13°C° 0 mm 1 mps 760 mmHg 57%
    20:00 +12°C° 0 mm 2 mps 760 mmHg 58%
    21:00 +12°C° 0 mm 2 mps 759 mmHg 58%
    22:00 +12°C° 0 mm 2 mps 759 mmHg 58%
    23:00 +12°C° 0 mm 2 mps 759 mmHg 58%

    28 November, Tuesday

    Time Temperature Precipitation Wind Pressure Humidity
    00:00 +12°C° 0.1 mm 2 mps 759 mmHg 61%
    01:00 +12°C° 0.1 mm 2 mps 758 mmHg 65%
    02:00 +12°C° 0.1 mm 2 mps 758 mmHg 68%
    03:00 +12°C° 0.1 mm 2 mps 757 mmHg 70%
    04:00 +12°C° 0.1 mm 2 mps 757 mmHg 71%
    05:00 +12°C° 0.1 mm 2 mps 756 mmHg 73%
    06:00 +12°C° 0.3 mm 2 mps 756 mmHg 74%
    07:00 +13°C° 0.3 mm 2 mps 756 mmHg 75%
    08:00 +13°C° 0.3 mm 2 mps 756 mmHg 77%
    09:00 +14°C° 0.1 mm 2 mps 755 mmHg 74%
    10:00 +15°C° 0.1 mm 2 mps 755 mmHg 72%
    11:00 +16°C° 0.1 mm 2 mps 754 mmHg 69%
    12:00 +16°C° 0.2 mm 2 mps 753 mmHg 71%
    13:00 +16°C° 0.2 mm 2 mps 753 mmHg 73%
    14:00 +16°C° 0.2 mm 2 mps 752 mmHg 74%
    15:00 +15°C° 0.3 mm 2 mps 751 mmHg 77%
    16:00 +14°C° 0.3 mm 3 mps 751 mmHg 80%
    17:00 +13°C° 0.3 mm 3 mps 751 mmHg 83%
    18:00 +13°C° 0.5 mm 3 mps 750 mmHg 84%
    19:00 +13°C° 0.5 mm 3 mps 750 mmHg 85%
    20:00 +13°C° 0.5 mm 3 mps 750 mmHg 86%
    21:00 +13°C° 0.5 mm 3 mps 749 mmHg 87%
    22:00 +12°C° 0.5 mm 3 mps 749 mmHg 87%
    23:00 +12°C° 0.5 mm 3 mps 749 mmHg 88%

    29 November, Wednesday

    Time Temperature Precipitation Wind Pressure Humidity
    00:00 +12°C° 0.7 mm 3 mps 748 mmHg 88%
    01:00 +12°C° 0.7 mm 4 mps 748 mmHg 87%
    02:00 +11°C° 0.7 mm 4 mps 747 mmHg 87%
    03:00 +11°C° 0.2 mm 4 mps 747 mmHg 86%
    04:00 +10°C° 0.2 mm 5 mps 747 mmHg 86%
    05:00 +9°C° 0.2 mm 5 mps 747 mmHg 85%
    06:00 +9°C° 0 mm 5 mps 747 mmHg 83%
    07:00 +9°C° 0 mm 5 mps 748 mmHg 81%
    08:00 +9°C° 0 mm 5 mps 748 mmHg 78%
    09:00 +10°C° 0 mm 5 mps 748 mmHg 71%
    10:00 +12°C° 0 mm 5 mps 748 mmHg 63%
    11:00 +13°C° 0 mm 5 mps 748 mmHg 56%
    12:00 +14°C° 0 mm 5 mps 748 mmHg 55%
    13:00 +14°C° 0 mm 6 mps 748 mmHg 54%
    14:00 +14°C° 0 mm 6 mps 748 mmHg 53%
    15:00 +13°C° 0 mm 6 mps 748 mmHg 57%
    16:00 +12°C° 0 mm 5 mps 749 mmHg 61%
    17:00 +9°C° 0 mm 5 mps 749 mmHg 66%
    18:00 +9°C° 0 mm 5 mps 750 mmHg 67%
    19:00 +8°C° 0 mm 5 mps 751 mmHg 68%
    20:00 +8°C° 0 mm 5 mps 751 mmHg 69%
    21:00 +7°C° 0 mm 4 mps 752 mmHg 68%
    22:00 +7°C° 0 mm 4 mps 752 mmHg 67%
    23:00 +7°C° 0 mm 4 mps 752 mmHg 67%

    30 November, Thursday

    Time Temperature Precipitation Wind Pressure Humidity
    00:00 +7°C° 0 mm 4 mps 753 mmHg 66%
    01:00 +8°C° 0 mm 3 mps 753 mmHg 65%
    02:00 +7°C° 0 mm 3 mps 753 mmHg 65%
    03:00 +7°C° 0 mm 3 mps 753 mmHg 66%
    04:00 +5°C° 0 mm 3 mps 754 mmHg 67%
    05:00 +5°C° 0 mm 3 mps 754 mmHg 68%
    06:00 +5°C° 0 mm 3 mps 755 mmHg 66%
    07:00 +7°C° 0 mm 3 mps 755 mmHg 64%
    08:00 +7°C° 0 mm 2 mps 756 mmHg 62%
    09:00 +9°C° 0 mm 2 mps 756 mmHg 55%
    10:00 +10°C° 0 mm 2 mps 756 mmHg 48%
    11:00 +13°C° 0 mm 2 mps 756 mmHg 41%
    12:00 +13°C° 0 mm 2 mps 756 mmHg 40%
    13:00 +12°C° 0 mm 3 mps 756 mmHg 40%
    14:00 +12°C° 0 mm 3 mps 756 mmHg 39%
    15:00 +11°C° 0 mm 4 mps 756 mmHg 45%
    16:00 +10°C° 0 mm 4 mps 757 mmHg 50%
    17:00 +7°C° 0 mm 4 mps 757 mmHg 55%
    18:00 +7°C° 0 mm 4 mps 758 mmHg 58%
    19:00 +6°C° 0 mm 4 mps 758 mmHg 60%
    20:00 +7°C° 0 mm 3 mps 759 mmHg 62%
    21:00 +5°C° 0 mm 3 mps 759 mmHg 64%
    22:00 +5°C° 0 mm 3 mps 759 mmHg 65%
    23:00 +5°C° 0 mm 3 mps 759 mmHg 67%
    Show more